STARLINK-1970 (47571 NORAD) Tracking and Keplerian Element Data

This shows tracking and keplerian element data for the satellite.

Feedback or suggestion? Click here.




ElementValue
Catalog47571
NameSTARLINK-1970
Epoch Orbit1175
Epoch Day106.25002315
Epoch Year2021
RAAN136.3463
Inclination53.0517
Eccentricity0.0004058
Argument of Perigee7.5892
Mean Anonmoly154.4212
Mean Motion15.62754233
Decay Rate-5.495E-05
L11 47571U 21009Z 21106.25002315 -.00005495 00000-0 -54150-4 0 9998
L22 47571 53.0517 136.3463 0004058 7.5892 154.4212 15.62754233 11752

Live tracking and technical data element details for STARLINK-1970 (NORAD 47571). STARLINK-1970 can be tracked NOW for your location showing map with azimuth and elevation plus other details from your city location.

Track the satellite on the map from your city or location and see movement details for azimuth, elevation, latitude, longitude, range, height, and movement on the map or in text.







IsCatalogInMostPopularTable: catalog: 47571, numindb: 18
Update: records affected: 1



GetName: 47571 STARLINK-1970

Hit Count: updated at: Fri, 16 Apr 2021 11:44:30 GMT